• In Kazakhstan
  • List of Countries
  • For 7 days
  • Water Temperature
  • Satellite Maps
  • Weather Map
  • News
  • Weather Widgets
  • user-avatar
    Login

    Hourly Weather Mendoza

    Today, 21 March, Thursday

    Time Temperature Precipitation Wind Pressure Humidity
    00:00 +15°C° 0 mm 2 mps 700 mmHg 44%
    01:00 +15°C° 0 mm 2 mps 700 mmHg 47%
    02:00 +14°C° 0 mm 2 mps 699 mmHg 49%
    03:00 +14°C° 0 mm 2 mps 699 mmHg 50%
    04:00 +14°C° 0 mm 2 mps 698 mmHg 52%
    05:00 +14°C° 0 mm 2 mps 698 mmHg 49%
    06:00 +15°C° 0 mm 1 mps 699 mmHg 46%
    07:00 +16°C° 0 mm 1 mps 699 mmHg 43%
    08:00 +17°C° 0 mm 2 mps 699 mmHg 40%
    09:00 +19°C° 0 mm 3 mps 699 mmHg 38%
    10:00 +20°C° 0 mm 3 mps 698 mmHg 36%
    11:00 +21°C° 0 mm 3 mps 698 mmHg 35%
    12:00 +22°C° 0 mm 4 mps 698 mmHg 34%
    13:00 +23°C° 0 mm 4 mps 697 mmHg 33%
    14:00 +24°C° 0 mm 3 mps 697 mmHg 33%
    15:00 +25°C° 0 mm 3 mps 696 mmHg 33%
    16:00 +25°C° 0 mm 3 mps 696 mmHg 33%
    17:00 +24°C° 0 mm 3 mps 696 mmHg 38%
    18:00 +23°C° 0 mm 2 mps 697 mmHg 42%
    19:00 +20°C° 0 mm 2 mps 697 mmHg 46%
    20:00 +21°C° 0 mm 1 mps 697 mmHg 48%
    21:00 +20°C° 0 mm 1 mps 698 mmHg 50%
    22:00 +20°C° 0 mm 1 mps 698 mmHg 52%
    23:00 +19°C° 0 mm 1 mps 698 mmHg 55%

    Tomorrow, 22 March, Friday

    Time Temperature Precipitation Wind Pressure Humidity
    00:00 +19°C° 0 mm 1 mps 698 mmHg 59%
    01:00 +18°C° 0 mm 1 mps 698 mmHg 62%
    02:00 +18°C° 0 mm 1 mps 698 mmHg 62%
    03:00 +18°C° 0 mm 1 mps 698 mmHg 63%
    04:00 +18°C° 0 mm 1 mps 698 mmHg 63%
    05:00 +19°C° 0 mm 1 mps 699 mmHg 60%
    06:00 +19°C° 0 mm 2 mps 699 mmHg 58%
    07:00 +19°C° 0 mm 2 mps 700 mmHg 55%
    08:00 +21°C° 0 mm 2 mps 700 mmHg 51%
    09:00 +23°C° 0 mm 2 mps 700 mmHg 47%
    10:00 +25°C° 0 mm 2 mps 700 mmHg 43%
    11:00 +26°C° 0 mm 2 mps 700 mmHg 40%
    12:00 +27°C° 0 mm 3 mps 699 mmHg 37%
    13:00 +28°C° 0 mm 3 mps 699 mmHg 33%
    14:00 +28°C° 0 mm 3 mps 699 mmHg 32%
    15:00 +28°C° 0 mm 3 mps 698 mmHg 32%
    16:00 +28°C° 0 mm 4 mps 698 mmHg 31%
    17:00 +27°C° 0 mm 3 mps 698 mmHg 33%
    18:00 +26°C° 0 mm 3 mps 698 mmHg 36%
    19:00 +25°C° 0 mm 2 mps 699 mmHg 38%
    20:00 +24°C° 0 mm 3 mps 699 mmHg 40%
    21:00 +24°C° 0 mm 3 mps 699 mmHg 42%
    22:00 +22°C° 0 mm 3 mps 699 mmHg 44%
    23:00 +22°C° 0 mm 3 mps 699 mmHg 48%

    Day after tomorrow, 23 March, Saturday

    Time Temperature Precipitation Wind Pressure Humidity
    00:00 +21°C° 0 mm 2 mps 698 mmHg 51%
    01:00 +20°C° 0 mm 2 mps 698 mmHg 54%
    02:00 +21°C° 0 mm 1 mps 698 mmHg 55%
    03:00 +20°C° 0 mm 1 mps 697 mmHg 56%
    04:00 +20°C° 0 mm 1 mps 697 mmHg 57%
    05:00 +21°C° 0 mm 1 mps 697 mmHg 53%
    06:00 +22°C° 0 mm 1 mps 698 mmHg 48%
    07:00 +23°C° 0 mm 1 mps 698 mmHg 44%
    08:00 +24°C° 0 mm 1 mps 699 mmHg 41%
    09:00 +25°C° 0 mm 2 mps 699 mmHg 39%
    10:00 +27°C° 0 mm 2 mps 699 mmHg 36%
    11:00 +28°C° 0 mm 2 mps 699 mmHg 34%
    12:00 +29°C° 0 mm 2 mps 698 mmHg 31%
    13:00 +30°C° 0 mm 2 mps 698 mmHg 29%
    14:00 +30°C° 0 mm 2 mps 698 mmHg 29%
    15:00 +30°C° 0 mm 2 mps 698 mmHg 29%
    16:00 +30°C° 0 mm 2 mps 698 mmHg 29%
    17:00 +29°C° 0 mm 1 mps 698 mmHg 33%
    18:00 +27°C° 0 mm 1 mps 698 mmHg 38%
    19:00 +24°C° 0 mm 0 mps 699 mmHg 43%
    20:00 +25°C° 0 mm 1 mps 699 mmHg 45%
    21:00 +25°C° 0 mm 1 mps 700 mmHg 46%
    22:00 +24°C° 0 mm 1 mps 700 mmHg 47%
    23:00 +24°C° 0 mm 1 mps 701 mmHg 49%

    24 March, Sunday

    Time Temperature Precipitation Wind Pressure Humidity
    00:00 +24°C° 0 mm 2 mps 701 mmHg 51%
    01:00 +23°C° 0 mm 2 mps 701 mmHg 52%
    02:00 +22°C° 0 mm 3 mps 701 mmHg 44%
    03:00 +21°C° 0 mm 4 mps 701 mmHg 36%
    04:00 +20°C° 0 mm 4 mps 701 mmHg 27%
    05:00 +20°C° 0 mm 4 mps 701 mmHg 27%
    06:00 +20°C° 0 mm 3 mps 701 mmHg 26%
    07:00 +20°C° 0 mm 2 mps 702 mmHg 26%
    08:00 +21°C° 0 mm 3 mps 701 mmHg 25%
    09:00 +22°C° 0 mm 3 mps 701 mmHg 24%
    10:00 +25°C° 0 mm 4 mps 701 mmHg 23%
    11:00 +25°C° 0 mm 3 mps 700 mmHg 24%
    12:00 +26°C° 0 mm 3 mps 700 mmHg 24%
    13:00 +27°C° 0 mm 3 mps 699 mmHg 24%
    14:00 +27°C° 0 mm 3 mps 698 mmHg 25%
    15:00 +27°C° 0 mm 3 mps 698 mmHg 26%
    16:00 +27°C° 0 mm 3 mps 698 mmHg 27%
    17:00 +26°C° 0 mm 2 mps 698 mmHg 29%
    18:00 +25°C° 0 mm 2 mps 698 mmHg 32%
    19:00 +24°C° 0 mm 2 mps 699 mmHg 34%
    20:00 +23°C° 0 mm 2 mps 699 mmHg 35%
    21:00 +21°C° 0 mm 2 mps 699 mmHg 36%
    22:00 +21°C° 0 mm 2 mps 699 mmHg 38%
    23:00 +20°C° 0 mm 2 mps 699 mmHg 40%

    25 March, Monday

    Time Temperature Precipitation Wind Pressure Humidity
    00:00 +20°C° 0 mm 3 mps 699 mmHg 43%
    01:00 +19°C° 0 mm 3 mps 698 mmHg 45%
    02:00 +19°C° 0 mm 3 mps 698 mmHg 48%
    03:00 +18°C° 0 mm 4 mps 698 mmHg 50%
    04:00 +18°C° 0 mm 4 mps 698 mmHg 52%
    05:00 +18°C° 0 mm 4 mps 698 mmHg 50%
    06:00 +17°C° 0 mm 5 mps 699 mmHg 48%
    07:00 +19°C° 0 mm 5 mps 699 mmHg 46%
    08:00 +20°C° 0 mm 5 mps 699 mmHg 42%
    09:00 +22°C° 0 mm 5 mps 700 mmHg 38%
    10:00 +23°C° 0 mm 5 mps 700 mmHg 34%
    11:00 +25°C° 0 mm 5 mps 699 mmHg 34%
    12:00 +26°C° 0 mm 5 mps 699 mmHg 34%
    13:00 +26°C° 0 mm 5 mps 699 mmHg 33%
    14:00 +26°C° 0 mm 5 mps 699 mmHg 35%
    15:00 +26°C° 0 mm 5 mps 699 mmHg 36%
    16:00 +26°C° 0 mm 5 mps 699 mmHg 38%
    17:00 +25°C° 0 mm 5 mps 699 mmHg 42%
    18:00 +25°C° 0 mm 4 mps 700 mmHg 47%
    19:00 +23°C° 0 mm 4 mps 700 mmHg 51%
    20:00 +22°C° 0 mm 4 mps 701 mmHg 53%
    21:00 +21°C° 0 mm 4 mps 701 mmHg 55%
    22:00 +20°C° 0 mm 5 mps 701 mmHg 57%
    23:00 +20°C° 0 mm 5 mps 702 mmHg 56%

    26 March, Tuesday

    Time Temperature Precipitation Wind Pressure Humidity
    00:00 +19°C° 0 mm 5 mps 702 mmHg 55%
    01:00 +19°C° 0 mm 6 mps 702 mmHg 54%
    02:00 +17°C° 0 mm 6 mps 702 mmHg 54%
    03:00 +17°C° 0 mm 6 mps 702 mmHg 53%
    04:00 +17°C° 0 mm 6 mps 702 mmHg 53%
    05:00 +16°C° 0 mm 6 mps 702 mmHg 53%
    06:00 +16°C° 0 mm 6 mps 703 mmHg 54%
    07:00 +16°C° 0 mm 6 mps 703 mmHg 54%
    08:00 +16°C° 0 mm 6 mps 703 mmHg 53%
    09:00 +17°C° 0 mm 6 mps 703 mmHg 52%
    10:00 +17°C° 0 mm 6 mps 703 mmHg 51%
    11:00 +19°C° 0 mm 6 mps 703 mmHg 52%
    12:00 +19°C° 0 mm 6 mps 702 mmHg 52%
    13:00 +20°C° 0 mm 7 mps 702 mmHg 52%
    14:00 +19°C° 0 mm 6 mps 702 mmHg 56%
    15:00 +17°C° 0 mm 6 mps 701 mmHg 60%
    16:00 +16°C° 0 mm 6 mps 701 mmHg 64%
    17:00 +16°C° 0 mm 5 mps 702 mmHg 67%
    18:00 +15°C° 0 mm 5 mps 702 mmHg 71%
    19:00 +15°C° 0 mm 5 mps 703 mmHg 74%
    20:00 +14°C° 0 mm 4 mps 703 mmHg 75%
    21:00 +14°C° 0 mm 4 mps 703 mmHg 77%
    22:00 +14°C° 0 mm 4 mps 703 mmHg 78%
    23:00 +14°C° 0 mm 3 mps 702 mmHg 80%
    Show more